Weather History for Greenwood, MS

Change the Weather History Date:

Thursday, October 13, 2011

  Actual Average Record
Temperature  
Mean Temperature 64 °F 65 °F  
Max Temperature 78 °F 78 °F 93 °F (1963)
Min Temperature 50 °F 52 °F 33 °F (1987)
Degree Days  
Heating Degree Days 1 3  
Month to date heating degree days 28 29  
Since 1 July heating degree days 41 41  
Cooling Degree Days 0 3  
Month to date cooling degree days 38 56  
Year to date cooling degree days 2282 2103  
Growing Degree Days 13 (Base 50)    
Moisture  
Dew Point 59 °F    
Average Humidity 72    
Maximum Humidity 100    
Minimum Humidity 43    
Precipitation  
Precipitation 0.25 in 0.12 in 4.10 in (1970)
Month to date precipitation 0.54 1.62  
Year to date precipitation 27.58 39.35  
Sea Level Pressure  
Sea Level Pressure 29.76 in    
Wind  
Wind Speed 4 mph (West)    
Max Wind Speed 14 mph    
Max Gust Speed 21 mph    
Visibility 5 miles    
Events Fog , Rain    
T = Trace of Precipitation, MM = Missing Value Source: NWS Daily Summary

Daily Weather History Graph

Daily Weather History Graph

Search for Another Location

Airport:

Trip Planner

Search our weather history database for the weather conditions in past years. The results will help you decide how hot, cold, wet, or windy it might be!

Date:

Astronomy

Oct. 13, 2011 Rise Set
Actual Time 7:03 AM CDT 6:29 PM CDT
Civil Twilight 6:38 AM CDT 6:54 PM CDT
Nautical Twilight 6:09 AM CDT 7:23 PM CDT
Astronomical Twilight 5:40 AM CDT 7:51 PM CDT
Moon 7:13 PM CDT (10/13) 8:27 AM CDT (10/13)
Length of Visible Light 12h 16m
Length of Day
11h 26m
Full, 98% of the Moon is Illuminated
Oct 13
Full
Oct 19
Last Quarter
Oct 26
New
Nov 2
First Quarter
Nov 10
Full

Hourly Weather History & Observations

Time (CDT) Temp. Dew Point Humidity Pressure Visibility Wind Dir Wind Speed Gust Speed Precip Events Conditions
12:06 AM 62.6 °F 62.6 °F 100% 29.76 in 0.2 mi SSW 5.8 mph - N/A Fog Fog
12:53 AM 62.6 °F 62.6 °F 100% 29.75 in 0.2 mi SSW 6.9 mph - N/A Fog Fog
1:31 AM 62.6 °F 62.6 °F 100% 29.74 in 0.8 mi SSW 8.1 mph - N/A   Mist
1:36 AM 62.6 °F 62.6 °F 100% 29.74 in 2.0 mi SSW 8.1 mph - N/A   Overcast
1:50 AM 62.6 °F 62.6 °F 100% 29.74 in 1.5 mi SSW 8.1 mph - N/A   Overcast
1:53 AM 63.0 °F 63.0 °F 100% 29.73 in 1.5 mi SSW 8.1 mph - N/A   Overcast
2:25 AM 62.6 °F 62.6 °F 100% 29.73 in 3.0 mi South 6.9 mph - N/A   Overcast
2:53 AM 62.1 °F 62.1 °F 100% 29.71 in 5.0 mi South 4.6 mph - N/A   Overcast
3:09 AM 62.6 °F 62.6 °F 100% 29.72 in 5.0 mi SSW 3.5 mph - N/A   Overcast
3:22 AM 62.6 °F 62.6 °F 100% 29.76 in 1.5 mi Variable 4.6 mph 20.7 mph 0.13 in Rain Heavy Rain
3:33 AM 62.6 °F 60.8 °F 94% 29.74 in 2.5 mi NNE 8.1 mph - 0.24 in Rain Rain
3:42 AM 62.6 °F 60.8 °F 94% 29.75 in 5.0 mi North 5.8 mph - 0.25 in Rain Light Rain
3:51 AM 62.6 °F 60.8 °F 94% 29.74 in 10.0 mi Calm Calm - 0.25 in   Overcast
3:53 AM 62.1 °F 61.0 °F 96% 29.73 in 10.0 mi Calm Calm - 0.25 in   Overcast
4:47 AM 60.8 °F 59.0 °F 94% 29.72 in 1.8 mi Calm Calm - N/A   Clear
4:50 AM 60.8 °F 59.0 °F 94% 29.72 in 0.8 mi Calm Calm - N/A   Mist
4:53 AM 60.1 °F 59.0 °F 96% 29.71 in 0.5 mi Calm Calm - N/A Fog Fog
5:22 AM 59.0 °F 57.2 °F 94% 29.72 in 0.5 mi Calm Calm - N/A Fog Fog
5:31 AM 59.0 °F 57.2 °F 94% 29.71 in 0.8 mi South 3.5 mph - N/A   Mostly Cloudy
5:37 AM 59.0 °F 59.0 °F 100% 29.72 in 2.5 mi Calm Calm - N/A   Mostly Cloudy
5:44 AM 59.0 °F 59.0 °F 100% 29.72 in 7.0 mi Calm Calm - N/A   Overcast
5:53 AM 60.1 °F 59.0 °F 96% 29.71 in 7.0 mi Calm Calm - N/A   Overcast
6:19 AM 60.8 °F 60.8 °F 100% 29.72 in 10.0 mi Calm Calm - N/A   Overcast
6:53 AM 62.1 °F 61.0 °F 96% 29.72 in 9.0 mi SSW 3.5 mph - N/A   Overcast
7:48 AM 62.6 °F 62.6 °F 100% 29.73 in 3.0 mi SW 5.8 mph - N/A   Mostly Cloudy
7:53 AM 63.0 °F 63.0 °F 100% 29.72 in 3.0 mi SW 4.6 mph - N/A   Scattered Clouds
8:10 AM 64.4 °F 62.6 °F 94% 29.73 in 2.5 mi SW 5.8 mph - N/A   Mostly Cloudy
8:21 AM 64.4 °F 62.6 °F 94% 29.73 in 2.5 mi SW 4.6 mph - N/A   Overcast
8:29 AM 64.4 °F 62.6 °F 94% 29.74 in 3.0 mi West 3.5 mph - N/A   Overcast
8:53 AM 64.0 °F 62.1 °F 93% 29.75 in 5.0 mi North 5.8 mph - N/A   Overcast
8:57 AM 64.4 °F 62.6 °F 94% 29.76 in 5.0 mi NNW 5.8 mph - N/A   Overcast
9:27 AM 64.4 °F 62.6 °F 94% 29.76 in 5.0 mi North 3.5 mph - N/A   Overcast
9:53 AM 64.9 °F 62.1 °F 90% 29.77 in 9.0 mi NW 3.5 mph - N/A   Overcast
10:30 AM 64.4 °F 62.6 °F 94% 29.78 in 10.0 mi WNW 4.6 mph - N/A   Overcast
10:53 AM 66.0 °F 62.1 °F 87% 29.79 in 10.0 mi WNW 3.5 mph - N/A   Overcast
11:12 AM 66.2 °F 60.8 °F 83% 29.79 in 10.0 mi NW 8.1 mph - N/A   Overcast
11:53 AM 69.1 °F 60.1 °F 73% 29.79 in 10.0 mi West 9.2 mph - N/A   Overcast
12:41 PM 71.6 °F 60.8 °F 69% 29.79 in 10.0 mi NW 9.2 mph - N/A   Mostly Cloudy
12:53 PM 73.0 °F 60.1 °F 64% 29.78 in 10.0 mi WNW 9.2 mph - N/A   Scattered Clouds
1:53 PM 73.9 °F 55.9 °F 53% 29.76 in 10.0 mi WNW 10.4 mph 18.4 mph N/A   Partly Cloudy
2:53 PM 75.9 °F 55.9 °F 50% 29.75 in 10.0 mi Variable 5.8 mph 17.3 mph N/A   Scattered Clouds
3:53 PM 75.9 °F 53.1 °F 45% 29.75 in 10.0 mi NW 8.1 mph 18.4 mph N/A   Scattered Clouds
4:53 PM 75.9 °F 52.0 °F 43% 29.75 in 10.0 mi WNW 6.9 mph 18.4 mph N/A   Partly Cloudy
5:53 PM 73.0 °F 53.1 °F 49% 29.77 in 10.0 mi NW 4.6 mph - N/A   Clear
6:53 PM 68.0 °F 53.6 °F 60% 29.79 in 10.0 mi Calm Calm - N/A   Clear
7:53 PM 60.1 °F 55.0 °F 83% 29.80 in 10.0 mi Calm Calm - N/A   Clear
8:53 PM 57.0 °F 55.0 °F 93% 29.82 in 10.0 mi Calm Calm - N/A   Clear
9:53 PM 55.0 °F 53.1 °F 93% 29.83 in 10.0 mi Calm Calm - N/A   Clear
10:53 PM 54.0 °F 53.1 °F 97% 29.85 in 7.0 mi Calm Calm - N/A   Clear
11:30 PM 51.8 °F 51.8 °F 100% 29.86 in 1.8 mi Calm Calm - N/A   Clear
11:38 PM 53.6 °F 51.8 °F 94% 29.86 in 0.5 mi Calm Calm - N/A Fog Fog
11:47 PM 53.6 °F 51.8 °F 94% 29.86 in 0.2 mi Calm Calm - N/A Fog Fog
11:53 PM 52.0 °F 51.1 °F 97% 29.86 in 0.5 mi Calm Calm - N/A Fog Fog